MET194 - Hong Kong to Los Angeles

Airbus A330-243
162EP
12 hrs 25 mins
6305 nm
Scheduled - SU | TU | W | TH | F | SA

Bid/PiRep Status

Bid was submitted on January 2nd, 2017 7:08 UTC.
PiRep # 74597: Approved by Dave Nichols on January 5th, 2017 17:56 UTC

Departure

Departing from
Hong Kong (HKG)
Departure gate
Terminal 1
Scheduled Departure
GMT 0145
Local 0945
METAR VHHH 190530Z 34012KT 9999 FEW028 27/19 Q1011 NOSIG
TAF TAF VHHH 182300Z 1900/2006 03010KT 9999 FEW035 TX30/1906Z TX30/2006Z TN25/1923Z TEMPO 1903/1909 33010KT TEMPO 2003/2006 33010KT
  • No charts available

Arrival

Arriving at
Los Angeles (LAX)
Arrival gate
Scheduled Arrival
GMT 1410
Local 0710
METAR KLAX 190453Z 23006KT 10SM CLR 21/13 A2991 RMK AO2 SLP127 T02060128
TAF KLAX 190329Z 1903/2006 24009KT P6SM SKC FM190800 VRB03KT 4SM BR OVC005 FM191400 VRB03KT 3SM BR OVC007 FM191800 24006KT 6SM HZ BKN010 FM192000 26011KT P6SM SCT015 BKN250 FM200300 25011KT P6SM BKN010

Route Map

Planning Resources

BEKO3A A461 IDUMA W22 SHL G471 PLT A599 PUD A593 NIRAT B576 CJU A586 TENAS B467 NULAR B233 DITOR B962 LEMBA B237 TK B240 ENM J179 MDO J804R FRIED TR19 YZP J523 TOU J501 OED J126 HANDY J1 RBL J126 SAC J65 EHF ZIGGY4 EHF
V3 ENVAR MJE PABBA OTR5 KALNA UNVER ENI AVE FIM ZIGGY4
LAKE2B V1 A470 LJG B221 SHZ G204 AND B221 NINAS G327 LAMEN A593 NIRAT B576 CJU A586 TENAS B467 NULAR B233 DITOR B962 LEMBA B237 TK B240 ENM J179 MDO J804R FRIED TRK19 YZP J523 YZT J590 YVR J5 SUMMA Q9 REBRG ZIGGY4 EHF
ENVAR M750 MJE A590 KAGIS OTR11 LEPKI 38E60 41E70 43E80 45N70 46N60 45N50 42N40 38N30 ALLBE PIRAT AVE FIM
OCEAN2A CONGA ENVAR M750 MJE A590 KAGIS OTR11 AVBET OTR9 EMRON PACOT_3 VESPA ENI J143 PYE J6 LANDO ZIGGY4
Route:
OFP Layout:
Units:
Detailed Navlog:
ETOPS Planning:
Plan Stepclimbs:
Runway Analysis:
Include NOTAMS:
FIR NOTAMS:
Flight Maps:

Return Flights

MET183
Boeing 777-300ER
1840 GMT
MET193
Airbus A330-243
0800 GMT

Popularity

Hub Current Bids PiReps this month Total PiReps
KLAX 0 0 5
KBOS 0 0 1
KDFW 0 0 0